{"data":{"norad_id":63040,"intl_designator":"2025-034M","name":"STARLINK-32832","alt_names":[],"object_type":"PAYLOAD","status":"ACTIVE","operator":null,"country":"US","launch_date":"2025-02-18","launch_site_code":"AFETR","launch_vehicle":null,"mission":null,"orbit_class":"UNKNOWN","rcs_meters":null,"size_class":null,"mass_kg":null,"dimensions":null,"purposes":["comms"],"wikipedia_slug":null,"has_3d_model":false,"image_url":null,"decayed_at":null,"tle_current":{"epoch":"2026-09-21T19:01:29.823456Z","epoch_age_seconds":53915,"freshness":"FRESH","line1":"1 63040U 25034M   26264.79270629  .00010296  00000+0  34310-3 0  9990","line2":"2 63040  53.1576  65.6443 0000872  91.6975 268.4126 15.31697159 89131","mean_motion":15.31697159,"eccentricity":8.72e-5,"inclination_deg":53.1576,"raan_deg":65.6443,"arg_perigee_deg":91.6975,"mean_anomaly_deg":268.4126,"bstar":0.0003431,"rev_number":8913,"period_min":94.013362337248,"perigee_km":470.15124129943,"apogee_km":471.34568692438,"semimajor_km":6848.8854641119,"source":"CELESTRAK","updated_at":"2026-09-22T09:00:49.745944Z"}}}